[[{"header":{"parameterUnit":"m.s-1","parameterCategory":1,"la1":30.2991,"la2":30.254,"lo1":-89.0895,"lo2":-89.0444,"dy":0.0017,"dx":0.0017,"nx":28,"ny":28,"refTime":"2026-03-03T03:00:00:Z","depth":0,"parameterNumber":2,"parameterNumberName":"U-component_of_WINDS"},"data":[0,0,0,0,0,0,0,0,0,0,0,0,0,0,0,0,0,0,0,0,0,0,0,0,0,0,0,0,0,0,0,0,0,0,0,0,0,0,0,0,0,0,0,0,0,0,0,0,0,0,0,0,0,0,0,0,0,0,-3.1343,-3.1343,0,-3.1427,-3.1428,-3.1429,-3.1416,-3.1415,-3.1413,-3.1412,-3.1499,-3.1502,-3.1506,0,0,0,0,0,0,0,0,0,0,0,0,0,-3.1173,-3.1176,-3.1342,-3.1343,-3.1345,-3.1427,-3.1428,-3.1429,-3.1416,-3.1414,-3.1413,-3.1411,-3.1498,-3.1502,-3.1506,0,0,0,0,0,0,0,0,0,0,0,0,0,-3.1251,-3.1177,-3.1342,-3.1348,-3.1349,-3.1427,-3.1428,-3.1429,-3.1417,-3.1414,-3.1412,-3.141,-3.1496,-3.1502,-3.1507,-3.1584,0,0,-3.1524,-3.1526,0,0,0,0,0,0,0,0,-3.1246,-3.1257,-3.1346,-3.1348,-3.1349,-3.1409,-3.14,-3.1481,-3.1417,-3.1391,-3.1412,-3.1409,-3.1471,-3.1478,-3.1499,-3.1588,-3.1592,-3.1524,-3.1528,-3.153,-3.1532,0,0,0,0,0,0,0,-3.1241,-3.1253,-3.1376,-3.1347,-3.135,-3.1347,-3.1356,-3.1415,-3.1442,-3.1393,-3.1392,-3.1403,-3.1471,-3.1493,-3.1501,-3.1593,-3.1524,-3.1529,-3.1532,-3.1535,-3.1752,-3.1755,0,0,0,0,0,0,-3.1234,-3.1249,-3.1373,-3.1378,-3.1292,-3.1352,-3.1362,-3.1392,-3.1441,-3.1447,-3.1404,-3.1402,-3.1485,-3.1494,-3.1504,-3.1598,-3.153,-3.1535,-3.1538,-3.175,-3.1753,-3.1755,0,0,0,0,0,0,-3.123,-3.1245,-3.137,-3.1314,-3.1329,-3.1357,-3.1391,-3.1395,-3.1417,-3.145,-3.1455,-3.1422,-3.1484,-3.1496,-3.1565,-3.1601,-3.1538,-3.1543,-3.1747,-3.1751,-3.1754,-3.1786,0,0,0,0,0,0,-3.1225,-3.1244,-3.1272,-3.1314,-3.1332,-3.1428,-3.1393,-3.1398,-3.1426,-3.1424,-3.1468,-3.1473,-3.1483,-3.1556,-3.157,-3.1607,-3.1547,-3.1744,-3.1748,-3.1753,-3.1782,-3.179,-3.1798,0,0,0,0,0,-3.1219,-3.1278,-3.1274,-3.1289,-3.1369,-3.143,-3.1441,-3.1451,-3.1429,-3.1459,-3.148,-3.1471,-3.1595,-3.1564,-3.1579,-3.1618,-3.1741,-3.1747,-3.1753,-3.1778,-3.1789,-3.1797,0,0,0,0,0,0,-3.1238,-3.1283,-3.1279,-3.1353,-3.1388,-3.1428,-3.1465,-3.1462,-3.1504,-3.1499,-3.1511,-3.1521,-3.1591,-3.1612,-3.1576,-3.1696,-3.1665,-3.1674,-3.168,-3.169,-3.1698,-3.169,-3.1551,0,0,0,0,0,-3.1251,-3.1297,-3.1334,-3.1396,-3.1414,-3.1437,-3.1464,-3.1469,-3.1506,-3.1521,-3.1547,-3.1584,-3.1631,-3.1662,-3.1707,-3.1786,-3.1796,-3.182,-3.1828,-3.1835,-3.1842,-3.1886,-3.1898,-3.1774,-3.1774,-3.1774,0,0,-3.1278,-3.1308,-3.1336,-3.14,-3.1428,-3.1476,-3.1449,-3.1501,-3.1537,-3.1529,-3.1595,-3.1616,-3.1658,-3.1732,-3.1766,-3.1752,-3.1879,-3.1842,-3.1847,-3.185,-3.1893,-3.1905,-3.1915,-3.1778,-3.1777,-3.1776,0,0,-3.1351,-3.1379,-3.1433,-3.1462,-3.1505,-3.1521,-3.1534,-3.1576,-3.159,-3.1657,-3.1652,-3.1696,-3.1777,-3.1807,-3.1833,-3.1922,-3.1916,-3.1937,-3.1977,-3.2021,-3.203,-3.2039,-3.2071,-3.2082,-3.1944,-3.1944,-3.1944,0,-3.1379,-3.145,-3.1462,-3.1515,-3.1543,-3.154,-3.1596,-3.1624,-3.1679,-3.17,-3.1683,-3.1786,-3.1814,-3.1896,-3.1918,-3.1939,-3.1955,-3.1931,-3.2028,-3.2037,-3.2045,-3.2076,-3.2088,-3.1946,-3.1946,-3.1946,-3.1946,0,-3.1483,-3.1533,-3.1572,-3.1626,-3.166,-3.1714,-3.1735,-3.1768,-3.1772,-3.1789,-3.1859,-3.1893,-3.1945,-3.1966,-3.1969,-3.2049,-3.2039,-3.2025,-3.1994,-3.2059,-3.2088,-3.21,-3.195,-3.1949,-3.1948,-3.1948,0,0,-3.1567,-3.1629,-3.1643,-3.1669,-3.1717,-3.1757,-3.1812,-3.1864,-3.1892,-3.1932,-3.1979,-3.2049,-3.2038,-3.2067,-3.2075,-3.2113,-3.2182,-3.2095,-3.2096,-3.211,-3.2273,-3.2282,-3.2295,-3.2179,-3.2182,-3.2183,-3.2269,0,-3.1644,-3.1741,-3.1754,-3.184,-3.1888,-3.1887,-3.1935,-3.1971,-3.199,-3.2034,-3.2056,-3.2105,-3.2086,-3.2104,-3.2142,-3.2166,-3.2215,-3.216,-3.2223,-3.2225,-3.2211,-3.231,-3.232,-3.2399,-3.2281,-3.2283,-3.2284,0,-3.1746,-3.179,-3.188,-3.1925,-3.1945,-3.1988,-3.2038,-3.2079,-3.2121,-3.2133,-3.2168,-3.2171,-3.223,-3.2198,-3.228,-3.2242,-3.227,-3.2286,-3.2289,-3.2294,-3.2257,-3.2317,-3.2424,-3.2436,-3.2302,-3.2301,-3.2299,0,-3.1799,-3.188,-3.1944,-3.1966,-3.202,-3.205,-3.2074,-3.2114,-3.2145,-3.2189,-3.221,-3.2261,-3.2288,-3.2328,-3.2346,-3.2321,-3.2427,-3.2396,-3.2438,-3.2438,-3.2459,-3.2457,-3.2571,-3.2479,-3.2478,-3.2478,-3.2478,0,-3.1883,-3.1938,-3.1969,-3.2008,-3.2071,-3.2088,-3.215,-3.2173,-3.2209,-3.2254,-3.2257,-3.23,-3.2322,-3.2368,-3.2383,-3.2449,-3.2461,-3.2473,-3.2476,-3.2472,-3.247,-3.2488,-3.2483,-3.2481,-3.2481,-3.248,-3.2479,0,-3.195,-3.1973,-3.2044,-3.2089,-3.2102,-3.2147,-3.2186,-3.2226,-3.2246,-3.2304,-3.2318,-3.235,-3.2405,-3.2428,-3.2495,-3.2505,-3.2581,-3.258,-3.2566,-3.2567,-3.2607,-3.2603,-3.2736,-3.2754,-3.2651,-3.2652,-3.2653,0,-3.2001,-3.2044,-3.2095,-3.2125,-3.215,-3.22,-3.2232,-3.2251,-3.2284,-3.2337,-3.2371,-3.2426,-3.2471,-3.2559,-3.2589,-3.2641,-3.2641,-3.2684,-3.2649,-3.2644,-3.2641,-3.2638,-3.2642,-3.269,-3.2691,-3.2692,-3.2692,0,-3.209,-3.21,-3.2145,-3.2197,-3.2235,-3.2276,-3.2316,-3.2342,-3.2367,-3.2405,-3.2462,-3.2497,-3.2567,-3.2622,-3.2676,-3.2702,-3.2702,-3.2704,-3.2716,-3.2712,-3.2702,-3.2707,-3.2583,-3.27,-3.2699,-3.2699,-3.2698,-3.2698,-3.215,-3.2189,-3.2231,-3.2283,-3.2316,-3.2354,-3.2393,-3.242,-3.2467,-3.2525,-3.2534,-3.2595,-3.2638,-3.2712,-3.274,-3.2789,-3.2778,-3.2795,-3.28,-3.2804,-3.2806,-3.2696,-3.2799,-3.2799,-3.2798,-3.2798,-3.2798,0,-3.2238,-3.2266,-3.2314,-3.2371,-3.2412,-3.241,-3.2455,-3.249,-3.2543,-3.2584,-3.2628,-3.2695,-3.2749,-3.2784,-3.2839,-3.2872,-3.2873,-3.2885,-3.2882,-3.2889,-3.2813,-3.2796,-3.2883,-3.2883,-3.2883,-3.2883,-3.2883,-3.2883,-3.2289,-3.2354,-3.237,-3.2452,-3.248,-3.2539,-3.2566,-3.2602,-3.2634,-3.2708,-3.2753,-3.2776,-3.2815,-3.2874,-3.2924,-3.2933,-3.2953,-3.2966,-3.2974,-3.2903,-3.2894,-3.2885,-3.287,-3.297,-3.2971,-3.3046,-3.3046,-3.3047]},{"header":{"parameterUnit":"m.s-1","parameterCategory":1,"la1":30.2991,"la2":30.254,"lo1":-89.0895,"lo2":-89.0444,"dy":0.0017,"dx":0.0017,"nx":28,"ny":28,"refTime":"2026-03-03T03:00:00:Z","depth":0,"parameterNumber":3,"parameterNumberName":"V-component_of_WINDS"},"data":[0,0,0,0,0,0,0,0,0,0,0,0,0,0,0,0,0,0,0,0,0,0,0,0,0,0,0,0,0,0,0,0,0,0,0,0,0,0,0,0,0,0,0,0,0,0,0,0,0,0,0,0,0,0,0,0,0,0,1.8795,1.8795,0,1.8799,1.8799,1.8799,1.8802,1.8802,1.8802,1.8802,1.8803,1.8803,1.8803,0,0,0,0,0,0,0,0,0,0,0,0,0,1.879,1.8791,1.8795,1.8795,1.8796,1.8799,1.8799,1.8799,1.8802,1.8802,1.8802,1.8802,1.8803,1.8803,1.8803,0,0,0,0,0,0,0,0,0,0,0,0,0,1.8793,1.8791,1.8795,1.8797,1.8797,1.8799,1.8799,1.8799,1.8802,1.8802,1.8802,1.8802,1.8803,1.8803,1.8803,1.8802,0,0,1.8803,1.8803,0,0,0,0,0,0,0,0,1.8793,1.8793,1.8797,1.8797,1.8797,1.88,1.8798,1.88,1.8802,1.88,1.8802,1.8802,1.8801,1.8802,1.8802,1.8802,1.8802,1.8803,1.8803,1.8803,1.8803,0,0,0,0,0,0,0,1.8793,1.8793,1.8797,1.8797,1.8797,1.8798,1.8798,1.8798,1.88,1.88,1.88,1.8801,1.8802,1.8802,1.8802,1.8802,1.8803,1.8803,1.8803,1.8803,1.8805,1.8805,0,0,0,0,0,0,1.8793,1.8793,1.8797,1.8797,1.8795,1.8798,1.8798,1.8799,1.88,1.8801,1.8801,1.8801,1.8802,1.8802,1.8802,1.8803,1.8803,1.8803,1.8803,1.8805,1.8805,1.8805,0,0,0,0,0,0,1.8792,1.8793,1.8797,1.8795,1.8796,1.8798,1.8799,1.8799,1.88,1.8801,1.8801,1.8801,1.8802,1.8802,1.8803,1.8803,1.8803,1.8803,1.8805,1.8805,1.8805,1.8805,0,0,0,0,0,0,1.8792,1.8793,1.8792,1.8795,1.8796,1.8797,1.8799,1.8799,1.88,1.88,1.8801,1.8801,1.8802,1.8803,1.8803,1.8803,1.8803,1.8805,1.8805,1.8805,1.8805,1.8805,1.8805,0,0,0,0,0,1.8792,1.8791,1.8792,1.8793,1.8795,1.8797,1.8797,1.8799,1.88,1.88,1.8801,1.8801,1.8804,1.8803,1.8803,1.8803,1.8805,1.8805,1.8805,1.8805,1.8805,1.8805,0,0,0,0,0,0,1.8786,1.8791,1.8793,1.8792,1.8795,1.8798,1.8797,1.8799,1.88,1.88,1.8802,1.8802,1.8803,1.8803,1.8802,1.8805,1.8804,1.8805,1.8804,1.8804,1.8804,1.8804,1.8803,0,0,0,0,0,1.8785,1.8787,1.8791,1.879,1.8791,1.8794,1.8795,1.8797,1.8799,1.8799,1.88,1.8802,1.8803,1.8804,1.8805,1.8805,1.8806,1.8806,1.8806,1.8806,1.8806,1.8809,1.8809,1.8806,1.8806,1.8806,0,0,1.8782,1.8785,1.8785,1.8789,1.8791,1.8793,1.8795,1.8796,1.8797,1.8799,1.88,1.8802,1.8804,1.8805,1.8806,1.8805,1.8808,1.8806,1.8806,1.8806,1.8809,1.8809,1.8809,1.8806,1.8806,1.8806,0,0,1.8778,1.878,1.8781,1.8784,1.8787,1.879,1.879,1.8794,1.8796,1.8798,1.88,1.8802,1.8803,1.8805,1.8807,1.8808,1.8808,1.8808,1.8808,1.8811,1.8811,1.8811,1.8813,1.8813,1.8808,1.8808,1.8808,0,1.8774,1.8777,1.8781,1.8783,1.8785,1.8789,1.879,1.8793,1.8796,1.8798,1.8798,1.8802,1.8804,1.8807,1.8808,1.8808,1.8809,1.8807,1.8811,1.8811,1.8811,1.8813,1.8813,1.8808,1.8808,1.8808,1.8808,0,1.8772,1.8774,1.8775,1.878,1.8782,1.8784,1.8789,1.8791,1.8793,1.8796,1.8799,1.8802,1.8805,1.8806,1.8807,1.881,1.881,1.8811,1.881,1.8812,1.8813,1.8814,1.8808,1.8808,1.8808,1.8808,0,0,1.8761,1.8772,1.8772,1.8776,1.8782,1.8784,1.8787,1.8791,1.8793,1.8797,1.88,1.8803,1.8805,1.8806,1.8808,1.8811,1.8813,1.8811,1.8811,1.8812,1.8818,1.8818,1.8819,1.8815,1.8815,1.8815,1.8819,0,1.8759,1.8764,1.877,1.8773,1.8777,1.8783,1.8785,1.879,1.8793,1.8797,1.8801,1.8804,1.8805,1.8806,1.8809,1.8812,1.8815,1.8812,1.8817,1.8817,1.8817,1.8819,1.8818,1.8821,1.8819,1.8819,1.8819,0,1.8755,1.876,1.8765,1.8774,1.8775,1.8778,1.8784,1.8787,1.8793,1.8796,1.88,1.8803,1.8807,1.8808,1.8814,1.8812,1.8815,1.8818,1.8818,1.8818,1.8818,1.882,1.8822,1.8823,1.882,1.882,1.882,0,1.8748,1.8756,1.8761,1.8764,1.8774,1.8776,1.878,1.8786,1.879,1.8795,1.8798,1.8803,1.8806,1.881,1.8815,1.8815,1.8822,1.8822,1.8824,1.8824,1.8824,1.8824,1.8828,1.8827,1.8827,1.8827,1.8827,0,1.8744,1.8747,1.8758,1.8761,1.8765,1.8772,1.8776,1.8781,1.8787,1.8791,1.8796,1.88,1.8807,1.8812,1.8816,1.8821,1.8822,1.8825,1.8826,1.8824,1.8824,1.8826,1.8825,1.8827,1.8827,1.8827,1.8827,0,1.8736,1.8744,1.875,1.876,1.8763,1.8765,1.8774,1.8778,1.8783,1.8789,1.879,1.8798,1.8805,1.8811,1.8819,1.8822,1.8828,1.8829,1.8826,1.8826,1.8829,1.8829,1.8833,1.8835,1.8832,1.8832,1.8832,0,1.8733,1.8736,1.8747,1.8751,1.8756,1.8762,1.8766,1.8774,1.8779,1.8788,1.8791,1.8798,1.8804,1.8814,1.8821,1.8828,1.8829,1.883,1.883,1.8829,1.883,1.883,1.8831,1.883,1.883,1.883,1.883,0,1.8727,1.8732,1.8738,1.8747,1.8752,1.8759,1.8766,1.8769,1.8779,1.8783,1.8791,1.8796,1.8806,1.8814,1.8822,1.8826,1.883,1.883,1.8831,1.8829,1.8828,1.883,1.8826,1.883,1.883,1.883,1.883,1.883,1.8721,1.8725,1.8735,1.8743,1.875,1.8757,1.8762,1.8769,1.8776,1.8785,1.879,1.8798,1.8807,1.8819,1.8823,1.883,1.8831,1.8832,1.8832,1.8832,1.8833,1.8828,1.8832,1.8832,1.8832,1.8832,1.8832,0,1.8716,1.8724,1.8731,1.8742,1.8749,1.8754,1.8763,1.8768,1.8775,1.8784,1.8791,1.8801,1.8809,1.8818,1.8827,1.8831,1.8833,1.8833,1.8832,1.8834,1.8831,1.883,1.8831,1.8831,1.8831,1.8831,1.8831,1.8831,1.8714,1.8722,1.8728,1.8739,1.8747,1.8756,1.8761,1.8768,1.8775,1.8787,1.8794,1.8801,1.881,1.882,1.8828,1.8831,1.8834,1.8834,1.8836,1.8834,1.8833,1.8833,1.8832,1.8834,1.8834,1.8839,1.8839,1.8839]}]]